Home   Weather   Hay River   Past weeks

Flag for Canada Past Weather in Hay River, Northwest Territories, Canada — Yesterday and Last 2 Weeks

Now
36 °F

Passing clouds.


Feels Like: 31 °F
Forecast: 5 / 36 °F
Wind: 6 mph from Southwest

Location: Hay River

Current Time: Jan 17, 2017 at 2:13:58 am

Latest Report: Jan 17, 2017 at 1:00 am


Visibility: 15 mi

Pressure: 28.97 "Hg

Humidity: 75%

Dew Point: 28 °F

Location of Hay RiverLocation

Past Weather in Hay River — Graph

°F

Hay River Temperature Yesterday

Maximum temperature yesterday: 37 °F (at 7:00 pm)
Minimum temperature yesterday: 18 °F (at 12:00 am)
Average temperature yesterday: 33 °F

High & Low Weather Summary for the Past Weeks

 TemperatureHumidityPressure
High37 °F (Jan 16, 7:00 pm)93% (Jan 3, 10:00 pm)30.79 "Hg (Jan 3, 10:00 pm)
Low-31 °F (Jan 11, 10:00 pm)62% (Jan 11, 4:00 pm)28.97 "Hg (Jan 17, 1:00 am)
Average-2 °F79%30.08 "Hg
* Reported Jan 2 1:00 am — Jan 17 1:00 am, Hay River, Weather by CustomWeather, © 2017

Note: Actual official high and low records may vary slightly from our data, if they occured in-between our weather recording intervals... More about our weather records

Advertising

Hay River Weather History for the Previous 24 Hours

Scroll right to see more
 ConditionsComfort  
Time TempWeatherWind HumidityBarometerVisibility
1:00 am
Tue, Jan 17
36 °FPassing clouds.6 mph75%28.97 "Hg15 mi
12:00 am37 °FPassing clouds.7 mph75%28.99 "Hg15 mi
11:00 pm
Mon, Jan 16
37 °FPassing clouds.12 mph75%28.99 "Hg15 mi
10:00 pm37 °FPassing clouds.13 mph70%29.02 "Hg15 mi
9:00 pm37 °FPassing clouds.13 mph75%29.04 "Hg15 mi
8:00 pm37 °FPartly cloudy.14 mph70%29.07 "Hg15 mi
7:00 pm37 °FPassing clouds.14 mph70%29.09 "Hg15 mi
6:00 pm36 °FPassing clouds.13 mph75%29.12 "Hg15 mi
5:00 pm36 °FPartly cloudy.14 mph70%29.13 "Hg15 mi
4:00 pm34 °FPartly sunny.12 mph75%29.14 "Hg15 mi
3:00 pm36 °FPartly sunny.12 mph70%29.14 "Hg15 mi
2:00 pm36 °FPartly sunny.10 mph70%29.15 "Hg15 mi
1:00 pm36 °FPartly sunny.9 mph70%29.16 "Hg15 mi
12:00 pm34 °FBroken clouds.12 mph75%29.18 "Hg15 mi
11:00 am34 °FBroken clouds.14 mph75%29.20 "Hg15 mi
10:00 am34 °FPartly sunny.10 mph75%29.21 "Hg15 mi
9:00 am34 °FPassing clouds.16 mph70%29.23 "Hg15 mi
8:00 am32 °FPassing clouds.16 mph75%29.26 "Hg15 mi
7:00 am32 °FPassing clouds.13 mph69%29.30 "Hg15 mi
6:00 am32 °FPassing clouds.16 mph69%29.34 "Hg15 mi
5:00 am30 °FPassing clouds.14 mph75%29.35 "Hg15 mi
4:00 am30 °FPassing clouds.13 mph75%29.41 "Hg15 mi
3:00 am28 °FPassing clouds.12 mph74%29.43 "Hg15 mi
2:00 am27 °FPassing clouds.10 mph74%29.44 "Hg15 mi
Weather by CustomWeather, © 2017

See weather overviewHow to use our weather pages